When you browse on this site, cookies collect data to enhance your experience and personalize the content and advertising you see.
Visit our Privacy Policy to learn more. By continuing to use the site, you agree to this use of cookies and data.
  • In United Kingdom
  • List of Countries
  • For 7 days
  • Water Temperature
  • Satellite Maps
  • Weather Map
  • Weather Widgets
  • user-avatar
    Login

    Hourly Weather Qizilcha

    Today, 20 June, Thursday

    Time Temperature Precipitation Wind Pressure Humidity
    00:00 +25°C° 0 mm 3 mps 694 mmHg 16%
    01:00 +24°C° 0 mm 3 mps 694 mmHg 16%
    02:00 +22°C° 0 mm 3 mps 694 mmHg 16%
    03:00 +23°C° 0 mm 2 mps 694 mmHg 16%
    04:00 +21°C° 0 mm 2 mps 694 mmHg 17%
    05:00 +24°C° 0 mm 2 mps 695 mmHg 15%
    06:00 +26°C° 0 mm 3 mps 695 mmHg 14%
    07:00 +28°C° 0 mm 3 mps 696 mmHg 13%
    08:00 +30°C° 0 mm 4 mps 696 mmHg 12%
    09:00 +32°C° 0 mm 5 mps 696 mmHg 12%
    10:00 +33°C° 0 mm 6 mps 696 mmHg 12%
    11:00 +34°C° 0 mm 6 mps 696 mmHg 12%
    12:00 +34°C° 0 mm 6 mps 696 mmHg 11%
    13:00 +35°C° 0 mm 6 mps 696 mmHg 10%
    14:00 +35°C° 0 mm 6 mps 695 mmHg 10%
    15:00 +35°C° 0 mm 6 mps 695 mmHg 10%
    16:00 +35°C° 0 mm 6 mps 695 mmHg 9%
    17:00 +33°C° 0 mm 5 mps 695 mmHg 10%
    18:00 +32°C° 0 mm 5 mps 695 mmHg 11%
    19:00 +29°C° 0 mm 4 mps 695 mmHg 11%
    20:00 +28°C° 0 mm 3 mps 695 mmHg 12%
    21:00 +27°C° 0 mm 3 mps 695 mmHg 13%
    22:00 +25°C° 0 mm 2 mps 694 mmHg 13%
    23:00 +24°C° 0 mm 2 mps 694 mmHg 15%

    Tomorrow, 21 June, Friday

    Time Temperature Precipitation Wind Pressure Humidity
    00:00 +23°C° 0 mm 1 mps 694 mmHg 16%
    01:00 +22°C° 0 mm 1 mps 693 mmHg 17%
    02:00 +22°C° 0 mm 1 mps 693 mmHg 19%
    03:00 +21°C° 0 mm 1 mps 693 mmHg 20%
    04:00 +21°C° 0 mm 1 mps 693 mmHg 22%
    05:00 +23°C° 0 mm 1 mps 694 mmHg 19%
    06:00 +26°C° 0 mm 1 mps 694 mmHg 17%
    07:00 +28°C° 0 mm 1 mps 695 mmHg 15%
    08:00 +30°C° 0 mm 2 mps 695 mmHg 13%
    09:00 +32°C° 0 mm 4 mps 695 mmHg 11%
    10:00 +34°C° 0 mm 5 mps 696 mmHg 10%
    11:00 +35°C° 0 mm 5 mps 695 mmHg 9%
    12:00 +35°C° 0 mm 5 mps 695 mmHg 9%
    13:00 +36°C° 0 mm 5 mps 695 mmHg 8%
    14:00 +36°C° 0 mm 5 mps 695 mmHg 8%
    15:00 +36°C° 0 mm 6 mps 695 mmHg 8%
    16:00 +36°C° 0 mm 7 mps 695 mmHg 9%
    17:00 +35°C° 0 mm 6 mps 695 mmHg 10%
    18:00 +33°C° 0 mm 6 mps 695 mmHg 11%
    19:00 +30°C° 0 mm 5 mps 695 mmHg 13%
    20:00 +29°C° 0 mm 4 mps 695 mmHg 14%
    21:00 +28°C° 0 mm 4 mps 695 mmHg 16%
    22:00 +26°C° 0 mm 3 mps 695 mmHg 17%
    23:00 +26°C° 0 mm 3 mps 695 mmHg 20%

    Day after tomorrow, 22 June, Saturday

    Time Temperature Precipitation Wind Pressure Humidity
    00:00 +26°C° 0 mm 4 mps 695 mmHg 22%
    01:00 +25°C° 0 mm 4 mps 695 mmHg 24%
    02:00 +25°C° 0 mm 4 mps 695 mmHg 25%
    03:00 +23°C° 0 mm 4 mps 695 mmHg 26%
    04:00 +23°C° 0 mm 4 mps 695 mmHg 27%
    05:00 +25°C° 0 mm 5 mps 695 mmHg 25%
    06:00 +27°C° 0 mm 5 mps 696 mmHg 22%
    07:00 +29°C° 0 mm 6 mps 696 mmHg 20%
    08:00 +30°C° 0 mm 7 mps 697 mmHg 18%
    09:00 +32°C° 0 mm 7 mps 697 mmHg 17%
    10:00 +33°C° 0 mm 8 mps 697 mmHg 15%
    11:00 +34°C° 0 mm 8 mps 697 mmHg 14%
    12:00 +35°C° 0 mm 8 mps 697 mmHg 13%
    13:00 +37°C° 0 mm 8 mps 697 mmHg 12%
    14:00 +35°C° 0 mm 8 mps 697 mmHg 12%
    15:00 +35°C° 0 mm 8 mps 697 mmHg 12%
    16:00 +35°C° 0 mm 8 mps 697 mmHg 12%
    17:00 +34°C° 0 mm 7 mps 697 mmHg 13%
    18:00 +32°C° 0 mm 6 mps 697 mmHg 14%
    19:00 +30°C° 0 mm 4 mps 697 mmHg 15%
    20:00 +29°C° 0 mm 4 mps 697 mmHg 16%
    21:00 +28°C° 0 mm 4 mps 697 mmHg 18%
    22:00 +27°C° 0 mm 4 mps 697 mmHg 19%
    23:00 +26°C° 0 mm 3 mps 697 mmHg 21%

    23 June, Sunday

    Time Temperature Precipitation Wind Pressure Humidity
    00:00 +25°C° 0 mm 3 mps 696 mmHg 23%
    01:00 +24°C° 0 mm 3 mps 696 mmHg 25%
    02:00 +24°C° 0 mm 3 mps 696 mmHg 25%
    03:00 +22°C° 0 mm 3 mps 696 mmHg 26%
    04:00 +22°C° 0 mm 3 mps 696 mmHg 27%
    05:00 +25°C° 0 mm 4 mps 696 mmHg 24%
    06:00 +26°C° 0 mm 5 mps 697 mmHg 21%
    07:00 +28°C° 0 mm 6 mps 698 mmHg 19%
    08:00 +29°C° 0 mm 7 mps 698 mmHg 17%
    09:00 +32°C° 0 mm 8 mps 698 mmHg 16%
    10:00 +33°C° 0 mm 9 mps 698 mmHg 14%
    11:00 +34°C° 0 mm 9 mps 698 mmHg 14%
    12:00 +34°C° 0 mm 9 mps 698 mmHg 14%
    13:00 +35°C° 0 mm 9 mps 698 mmHg 13%
    14:00 +35°C° 0 mm 9 mps 697 mmHg 14%
    15:00 +36°C° 0 mm 10 mps 697 mmHg 14%
    16:00 +36°C° 0 mm 10 mps 697 mmHg 15%
    17:00 +34°C° 0 mm 9 mps 697 mmHg 15%
    18:00 +33°C° 0 mm 8 mps 697 mmHg 16%
    19:00 +30°C° 0 mm 7 mps 697 mmHg 16%
    20:00 +29°C° 0 mm 6 mps 697 mmHg 17%
    21:00 +28°C° 0 mm 5 mps 697 mmHg 18%
    22:00 +26°C° 0 mm 5 mps 698 mmHg 19%
    23:00 +25°C° 0 mm 4 mps 697 mmHg 20%

    24 June, Monday

    Time Temperature Precipitation Wind Pressure Humidity
    00:00 +23°C° 0 mm 4 mps 697 mmHg 20%
    01:00 +22°C° 0 mm 4 mps 697 mmHg 21%
    02:00 +21°C° 0 mm 3 mps 697 mmHg 22%
    03:00 +20°C° 0 mm 3 mps 696 mmHg 23%
    04:00 +19°C° 0 mm 3 mps 696 mmHg 24%
    05:00 +21°C° 0 mm 3 mps 696 mmHg 21%
    06:00 +24°C° 0 mm 3 mps 697 mmHg 19%
    07:00 +25°C° 0 mm 4 mps 697 mmHg 17%
    08:00 +27°C° 0 mm 4 mps 697 mmHg 16%
    09:00 +29°C° 0 mm 5 mps 697 mmHg 15%
    10:00 +32°C° 0 mm 5 mps 697 mmHg 14%
    11:00 +33°C° 0 mm 6 mps 697 mmHg 13%
    12:00 +35°C° 0 mm 7 mps 697 mmHg 11%
    13:00 +36°C° 0 mm 7 mps 697 mmHg 10%
    14:00 +37°C° 0 mm 8 mps 697 mmHg 10%
    15:00 +37°C° 0 mm 8 mps 696 mmHg 10%
    16:00 +37°C° 0 mm 9 mps 696 mmHg 10%
    17:00 +35°C° 0 mm 8 mps 696 mmHg 11%
    18:00 +33°C° 0 mm 8 mps 696 mmHg 11%
    19:00 +32°C° 0 mm 7 mps 696 mmHg 12%
    20:00 +30°C° 0 mm 6 mps 696 mmHg 13%
    21:00 +28°C° 0 mm 5 mps 696 mmHg 14%
    22:00 +27°C° 0 mm 4 mps 696 mmHg 14%
    23:00 +26°C° 0 mm 4 mps 695 mmHg 16%

    25 June, Tuesday

    Time Temperature Precipitation Wind Pressure Humidity
    00:00 +25°C° 0 mm 3 mps 695 mmHg 17%
    01:00 +24°C° 0 mm 3 mps 695 mmHg 18%
    02:00 +22°C° 0 mm 3 mps 695 mmHg 19%
    03:00 +21°C° 0 mm 2 mps 695 mmHg 21%
    04:00 +20°C° 0 mm 2 mps 694 mmHg 22%
    05:00 +22°C° 0 mm 3 mps 695 mmHg 20%
    06:00 +25°C° 0 mm 3 mps 695 mmHg 18%
    07:00 +26°C° 0 mm 3 mps 696 mmHg 16%
    08:00 +28°C° 0 mm 4 mps 696 mmHg 15%
    09:00 +30°C° 0 mm 5 mps 696 mmHg 13%
    10:00 +33°C° 0 mm 6 mps 696 mmHg 12%
    11:00 +34°C° 0 mm 6 mps 696 mmHg 11%
    12:00 +36°C° 0 mm 7 mps 696 mmHg 9%
    13:00 +38°C° 0 mm 7 mps 696 mmHg 8%
    14:00 +38°C° 0 mm 7 mps 696 mmHg 8%
    15:00 +38°C° 0 mm 7 mps 695 mmHg 8%
    16:00 +38°C° 0 mm 7 mps 695 mmHg 8%
    17:00 +35°C° 0 mm 6 mps 695 mmHg 10%
    18:00 +34°C° 0 mm 6 mps 695 mmHg 11%
    19:00 +32°C° 0 mm 5 mps 695 mmHg 13%
    20:00 +30°C° 0 mm 4 mps 694 mmHg 14%
    21:00 +28°C° 0 mm 3 mps 694 mmHg 16%
    22:00 +27°C° 0 mm 3 mps 694 mmHg 17%
    23:00 +26°C° 0 mm 2 mps 694 mmHg 20%
    Show more